Tracking 17556 objects as of 7-February-2016
HD Live streaming from Space Station
objects crossing your sky now

SL-14 DEB

Track SL-14 DEB now!
10-day predictions


NORAD ID: 19450
Int'l Code: 1978-100AH
Perigee: 1,687.0 km
Apogee: 1,706.4 km
Inclination: 82.6 °
Period: 120.2 minutes
Semi major axis: 8067 km
RCS: 0.0566 m2 (small)
Launch date: October 26, 1978
Source: Commonwealth of Independent States (former USSR) (CIS)
Launch site: PLESETSK MISSILE AND SPACE COMPLEX (PKMTR)

Note: This is SATELLITE DEBRIS
Your satellite tracking list
Your tracking list is empty





NASA's NSSDC Master Catalog

Two Line Element Set (TLE):
1 19450U 78100AH  16038.38726694  .00000019  00000-0  13554-3 0  9999
2 19450  82.5517   8.9549 0012042 286.0493 230.3567 11.9806467625691
Source of the keplerian elements: AFSPC

N2YO: 358